Voltar ao catálogo

LEMUR 2 MJR092620

AtivoMeteoSSO
NORAD 58340·PAYLOAD·🇺🇸 United States

Lançado Nov 11, 2023 de Vandenberg Space Force Base

Loading…

Próximas Passagens (próximas 24 horas)

TLE

AtualizadoSource: Space-Track

Época: Sep 13, 2026, 19:26 UTC

1 58340U 23174CN  26256.81020702  .00016084  00000-0  31055-3 0  9994
2 58340  97.3958 348.6544 0006278 146.5705 213.5943 15.47866865159343

Acompanhe LEMUR 2 MJR092620 em tempo real com AllMySat

Download on the App Store